RH
95 96 97 98 96 93 83 56 37 17 10 8 10 10 10 9 9 9 10 19 28 36 34 23 27 28 22 19 14 12 10 9 6 3 4 3 3 5 7 9 10 24 34
96 97 98 96 61 57 52 44 25 15 13 13 12 12 12 12 13 12 13 16 29 38 41 42 40 38 36 28 17 12 11 10 4 2 2 2 3 5 6 9 14 54 67
90 74 64 56 56 58 49 33 21 22 27 27 24 20 16 15 15 16 16 18 21 41 48 51 51 44 39 29 18 14 11 8 3 3 2 2 2 3 5 14 32 43 78
54 46 35 31 31 33 37 40 46 50 52 51 46 36 30 28 23 21 21 22 23 27 43 61 59 55 49 32 20 14 7 4 4 4 3 3 3 4 14 26 30 78 88
20 20 23 29 37 45 51 59 66 76 75 74 63 52 50 42 37 35 35 31 28 27 30 36 59 65 48 23 14 9 6 4 4 4 4 3 4 5 20 35 47 78 96
16 17 19 26 41 58 68 78 84 88 94 100 100 85 76 67 60 63 63 58 51 38 33 34 43 41 19 12 10 8 6 4 5 5 4 4 4 7 14 34 39 57 72
5 6 8 11 15 24 37 50 68 71 87 92 92 99 97 95 85 71 76 76 70 59 39 29 31 24 15 12 10 8 7 7 6 6 5 5 5 8 12 22 36 38 56
2 2 3 3 3 3 3 3 4 5 13 72 77 56 98 77 98 94 83 78 78 70 61 30 22 19 17 14 12 10 10 9 10 8 6 6 6 7 18 23 32 34 51
3 3 3 3 4 4 4 4 4 5 5 5 5 6 10 30 86 96 97 98 96 76 68 58 24 24 21 16 12 10 13 14 13 10 8 7 8 8 10 24 36 36 53
3 3 4 4 5 5 5 5 6 7 8 8 7 7 7 9 18 81 83 90 97 83 70 74 31 28 24 18 14 13 14 19 13 12 11 10 8 8 8 21 33 30 56
4 5 6 7 8 7 7 10 13 15 16 15 13 10 10 13 27 93 99 99 96 96 83 85 37 30 25 19 16 14 13 14 13 10 10 12 10 9 7 14 32 34 42
6 8 9 9 8 8 8 11 16 20 21 20 21 16 51 53 43 75 98 98 100 95 94 90 50 31 26 22 18 16 14 14 12 10 8 8 7 8 7 6 21 31 37
7 8 9 10 9 10 14 17 20 23 24 24 23 28 43 77 84 73 90 100 98 96 100 87 53 31 29 28 26 22 19 17 14 10 8 7 6 7 7 6 9 24 33
8 9 11 11 11 18 24 28 30 31 31 31 29 29 25 70 100 100 97 97 98 98 97 43 35 33 33 34 34 33 29 25 20 16 11 8 6 6 7 7 7 17 26
10 12 13 12 18 29 33 37 38 39 43 43 37 37 35 41 97 98 98 99 98 97 93 44 37 37 38 41 43 41 38 30 24 21 17 12 9 7 8 8 7 13 37
12 14 15 16 33 40 37 23 35 40 45 50 48 46 43 43 96 98 99 99 99 97 96 86 71 55 74 56 53 49 45 38 29 26 24 20 14 9 8 8 8 14 48
15 16 17 33 46 46 43 38 24 20 38 55 52 50 47 46 74 98 98 98 98 98 97 97 97 95 87 69 60 52 49 48 51 47 32 25 22 15 9 9 8 18 45
18 18 29 51 54 54 54 50 45 44 41 42 56 54 53 53 98 99 100 100 99 98 99 99 99 97 99 95 93 95 90 81 68 54 39 27 24 19 11 12 15 26 49
19 22 51 57 61 60 58 60 59 56 58 65 64 63 58 56 100 100 100 100 100 99 98 98 98 97 99 97 91 88 84 88 90 59 38 26 21 18 12 16 20 32 48
20 38 59 62 61 62 63 66 68 64 62 76 85 81 68 61 92 100 100 100 100 99 99 99 98 98 97 96 97 86 57 44 39 34 27 22 18 16 12 17 29 41 52
21 54 62 65 64 61 62 62 67 66 62 72 87 94 86 73 70 100 100 100 100 100 100 100 100 99 100 100 100 99 83 56 41 29 26 24 20 16 16 17 36 48 53
29 60 67 70 68 71 74 59 52 54 60 72 85 94 92 88 87 78 94 100 100 100 100 100 100 99 99 99 100 100 97 88 71 44 29 26 24 20 18 19 30 52 62
40 64 69 73 79 85 88 67 44 42 52 67 80 89 92 92 92 95 88 82 99 100 100 96 92 94 95 96 97 97 96 98 83 61 43 34 28 26 21 19 26 46 64
47 68 72 79 84 87 92 91 45 33 43 60 71 81 87 91 93 96 99 96 91 82 90 97 90 82 72 67 63 80 94 91 92 76 55 47 39 30 27 23 25 46 72
46 69 74 80 81 85 90 96 75 31 30 51 66 72 79 84 86 88 91 96 93 86 82 78 72 62 50 46 41 46 54 79 74 75 58 49 45 40 30 28 26 34 71
36 69 77 81 85 88 92 96 99 56 28 29 54 74 76 74 77 81 81 83 83 81 82 78 75 70 67 58 42 30 29 39 48 55 58 52 44 41 36 30 29 33 72
Wind_Speed
45 46 46 42 31 33 33 34 37 36 35 35 35 36 36 36 37 37 37 37 38 39 40 42 42 41 42 41 41 42 41 41 41 36 36 36 39 41 44 45 48 51 52
46 46 33 37 31 33 37 39 41 40 37 37 38 39 39 40 40 39 39 38 40 42 44 44 44 43 43 43 40 39 39 38 37 37 36 33 36 40 45 45 45 51 59
37 40 36 33 34 38 42 45 46 45 42 40 40 40 41 42 43 43 43 42 42 42 43 42 42 41 40 40 40 39 38 37 37 36 35 34 36 39 41 43 44 55 55
33 37 39 40 43 45 45 47 47 47 45 44 43 43 43 44 45 46 46 46 45 43 43 43 43 42 40 40 40 39 38 38 38 36 34 33 35 37 38 42 42 49 47
37 39 40 42 43 46 47 48 49 51 51 50 49 46 45 46 46 45 46 47 47 45 43 44 43 42 41 41 40 40 39 38 38 35 34 32 34 36 35 38 41 42 35
40 41 43 44 45 48 50 52 53 54 56 56 56 54 49 47 46 45 42 41 41 42 41 42 42 40 39 39 39 39 38 38 37 34 32 31 31 33 33 36 38 39 41
42 44 46 48 49 51 54 56 57 58 58 58 56 57 55 53 53 50 45 43 41 39 38 40 41 39 38 38 37 36 37 35 35 34 32 29 30 30 35 33 34 38 39
41 42 43 45 46 47 49 50 51 53 56 60 62 61 58 58 55 58 53 45 42 41 38 38 39 37 36 36 35 34 33 33 32 32 30 28 27 26 31 33 32 34 34
41 42 44 46 47 49 50 51 51 51 51 51 50 50 52 59 58 54 44 45 44 40 40 38 38 36 35 34 33 32 30 30 30 28 27 26 25 24 29 30 28 33 33
41 42 43 44 44 45 45 46 46 46 47 48 48 48 47 47 48 44 45 50 43 40 39 38 38 36 34 32 31 29 27 26 27 24 24 22 22 23 27 30 29 28 26
40 41 42 42 43 44 45 44 43 43 43 43 44 43 44 42 43 43 42 40 45 42 41 40 36 34 33 30 29 27 24 23 22 21 21 20 19 21 24 26 27 27 27
39 41 42 43 45 45 45 44 43 43 44 43 44 44 40 37 39 42 40 37 37 45 43 38 34 32 30 27 25 23 21 19 18 18 18 18 18 19 20 23 25 24 25
40 42 43 45 44 43 44 44 43 42 43 44 42 42 39 37 38 35 38 37 37 43 44 35 31 29 27 24 22 20 19 17 16 16 16 17 17 18 18 20 22 22 23
42 43 44 45 45 44 44 45 45 44 45 44 42 41 40 37 31 28 36 25 35 40 31 28 27 27 24 23 21 21 19 18 17 16 15 16 15 16 16 17 21 20 20
43 44 46 47 47 47 47 47 46 44 44 43 40 39 39 37 30 23 20 24 30 31 27 24 24 23 21 22 20 20 19 18 17 16 16 15 14 15 15 17 18 20 18
44 46 47 48 48 48 49 47 44 43 43 37 35 36 34 32 29 18 16 20 21 27 24 22 22 21 22 21 19 19 18 18 16 15 15 16 15 14 15 16 17 18 16
44 46 47 48 49 49 49 49 49 44 39 38 32 31 29 28 27 18 14 15 14 18 21 21 20 22 21 19 18 17 17 19 18 16 15 16 16 15 14 15 16 16 15
44 46 48 49 49 49 48 47 46 46 43 36 29 27 24 21 17 19 14 19 19 14 14 15 17 24 24 25 27 26 26 23 20 17 16 15 16 15 14 14 14 14 13
45 46 47 48 48 48 47 45 44 42 40 36 31 25 23 19 14 16 18 18 17 18 15 16 20 21 19 20 20 15 18 21 22 20 17 15 15 15 14 13 13 13 13
43 45 47 48 48 48 47 46 43 40 37 34 31 27 23 19 21 16 16 17 15 16 15 13 13 17 19 18 18 15 14 14 14 17 16 15 14 14 13 12 12 12 12
43 45 46 47 48 49 48 46 43 39 36 32 29 25 23 20 21 26 20 18 16 16 16 14 12 12 14 16 18 18 17 13 12 12 13 13 12 12 11 11 10 10 11
43 43 45 46 47 48 49 47 43 39 35 31 27 24 22 19 19 25 31 24 23 22 21 19 18 16 16 16 16 17 18 17 14 12 11 10 10 10 10 9 9 9 10
41 42 43 45 46 48 49 48 44 39 34 29 26 23 20 19 18 20 26 33 32 28 28 28 27 25 22 20 19 18 17 17 15 14 13 11 10 9 8 8 8 9 10
40 41 43 45 47 48 47 48 46 40 34 30 26 22 19 17 16 15 18 23 29 35 38 37 36 34 31 29 27 24 23 21 19 17 15 13 11 11 9 8 8 9 9
39 40 41 44 47 48 49 46 45 41 35 30 27 23 20 18 17 16 16 17 21 25 30 34 36 36 37 38 38 34 29 28 25 23 20 16 14 12 11 9 9 9 10
37 38 39 42 45 48 48 48 44 42 38 32 27 24 21 19 18 18 18 19 21 21 23 25 29 32 33 34 33 35 35 34 32 30 26 22 18 15 13 12 11 10 11
Wind_Direction
274 280 292 298 297 299 298 294 299 301 299 295 290 287 285 285 285 284 283 281 278 275 272 270 273 273 272 272 273 274 274 274 275 275 285 290 293 290 287 288 290 285 281
274 293 300 303 293 293 297 299 299 299 297 293 289 285 283 281 280 281 282 281 278 274 270 269 270 269 271 272 273 271 270 271 273 277 284 288 291 293 289 289 287 295 280
297 296 290 293 295 294 295 297 298 298 297 295 291 287 285 282 279 277 277 277 276 274 272 270 268 268 269 271 271 270 268 268 272 276 280 288 294 296 295 291 281 300 289
302 302 300 299 296 295 294 295 296 298 301 301 298 294 288 283 280 279 277 275 273 273 272 270 267 267 268 267 267 267 267 266 268 272 278 286 294 301 293 291 285 305 287
294 296 296 295 295 295 294 293 294 295 295 296 295 292 290 285 281 280 278 275 274 272 271 271 269 266 265 265 265 263 263 262 266 271 275 287 292 298 293 287 287 305 295
297 297 296 294 292 290 290 289 288 288 287 287 288 291 289 285 283 281 281 279 278 274 271 270 267 264 263 263 263 262 261 260 264 268 274 283 289 299 291 290 285 300 310
302 300 298 296 293 290 288 287 285 284 283 281 282 280 277 280 281 278 277 278 276 276 273 271 267 263 262 262 262 262 261 261 265 270 274 282 289 299 297 295 285 293 305
307 306 305 303 302 300 299 297 295 293 288 285 284 282 278 277 277 270 271 272 270 273 274 271 268 264 262 262 263 262 263 263 265 269 275 282 292 300 302 298 298 295 307
314 313 312 311 309 308 306 304 303 302 300 298 294 288 281 276 272 270 270 269 267 267 270 271 266 264 262 262 263 261 259 259 260 264 272 282 293 302 302 301 302 305 305
320 316 313 312 311 309 308 307 305 304 302 300 300 297 291 282 275 272 273 271 261 263 267 269 263 262 261 261 261 260 255 253 256 261 270 279 291 301 304 307 304 304 307
320 321 320 319 318 317 314 312 310 309 306 306 306 305 299 288 274 266 266 266 264 261 264 266 259 257 259 258 258 258 256 251 254 259 266 274 285 295 302 304 305 305 304
324 324 323 322 321 319 317 317 316 313 310 310 308 309 306 298 281 264 266 268 265 264 263 257 248 249 252 254 254 256 256 255 255 258 263 271 276 287 300 303 307 310 303
325 325 325 326 325 322 319 317 316 314 311 310 308 308 305 301 297 273 258 262 263 256 251 239 238 241 243 247 250 253 256 258 261 264 267 272 277 284 297 306 305 311 303
328 329 328 328 326 324 323 321 320 318 314 312 309 304 304 306 304 276 265 258 252 253 230 224 226 232 237 243 248 254 258 261 263 266 269 273 280 288 299 306 308 310 310
330 330 331 330 329 326 323 321 317 315 311 307 304 306 306 303 312 306 296 258 257 235 217 216 220 226 233 241 244 250 257 261 262 265 268 273 284 290 297 305 309 310 307
333 333 331 330 328 326 324 322 319 316 311 309 301 297 297 298 300 288 276 267 256 231 216 218 219 224 231 241 244 247 254 260 263 266 271 273 280 288 296 303 308 308 303
334 332 332 332 331 330 328 325 321 318 315 310 303 295 288 294 291 279 269 274 260 241 233 226 222 225 230 234 237 241 248 256 262 267 273 277 279 285 294 300 307 309 300
334 335 335 335 334 332 330 327 325 322 320 316 307 299 284 277 279 280 245 266 271 265 244 219 226 233 237 240 242 243 247 252 262 263 266 273 279 282 287 295 303 307 302
337 338 337 337 337 335 333 331 328 324 320 318 312 302 292 263 254 245 236 235 247 254 257 256 251 237 229 233 235 232 241 248 251 259 262 266 274 278 284 289 301 310 309
339 341 341 341 341 339 337 335 332 328 323 318 313 306 296 272 234 231 226 223 226 242 246 247 250 248 237 231 233 228 232 237 244 248 250 255 263 273 277 281 295 307 311
343 344 345 346 345 344 343 340 336 333 328 322 316 308 297 288 250 231 227 228 226 230 233 231 235 242 243 239 237 234 230 232 235 244 247 246 249 262 274 277 286 298 308
346 347 349 349 349 349 347 345 342 339 334 328 321 312 301 291 272 247 237 233 230 232 237 241 242 240 240 242 240 239 235 236 239 245 251 254 251 253 265 282 278 291 301
348 350 351 351 351 351 351 350 347 343 340 334 326 319 307 297 280 262 250 243 240 239 240 245 250 256 257 255 253 249 246 239 240 245 247 258 262 259 266 280 294 290 291
350 352 352 352 352 354 353 353 351 348 344 338 332 323 312 301 291 275 260 251 248 246 245 248 251 254 256 258 261 259 255 254 250 248 251 252 261 267 267 277 294 296 294
351 352 353 353 355 357 358 356 355 353 348 343 336 326 315 302 292 283 271 259 252 250 249 251 254 254 255 256 257 256 255 254 256 253 253 256 261 267 271 273 284 294 291
350 352 353 354 356 358 358 359 358 357 355 349 342 335 323 310 295 284 277 268 261 257 253 249 247 248 249 248 251 251 252 253 255 256 257 255 259 266 269 270 276 289 292